JLY7363 SBEG-SBBR

Flight info

Callsign JLY7363
Flight time 2h 25m
Altitude 37000
Route GIKVI UZ6 EKEBA DCT ELISA
Aircraft A320/M-SDE3FGHIRWY/LB1

Departure

Time 2026-05-08 23:12
Airport Eduardo Gomes International Airport (SBEG)

Arrival

Time 2026-05-09 01:37
Airport Presidente Juscelino Kubitschek International Airport (SBBR)
Time Latitude Longitude Altitude Speed Heading
2026-05-08 23:07 -3.03349 -60.04513 249 ft 0 kts 81°
2026-05-08 23:08 -3.03348 -60.04508 249 ft 5 kts 81°
2026-05-08 23:08 -3.03335 -60.04425 268 ft 17 kts 89°
2026-05-08 23:08 -3.03413 -60.04366 268 ft 14 kts 162°
2026-05-08 23:08 -3.03496 -60.04325 268 ft 12 kts 142°
2026-05-08 23:09 -3.03550 -60.04267 268 ft 11 kts 127°
2026-05-08 23:09 -3.03586 -60.04199 268 ft 13 kts 111°
2026-05-08 23:09 -3.03615 -60.04099 268 ft 16 kts 105°
2026-05-08 23:09 -3.03644 -60.03991 268 ft 16 kts 105°
2026-05-08 23:10 -3.03672 -60.03890 268 ft 14 kts 105°
2026-05-08 23:10 -3.03703 -60.03803 269 ft 12 kts 127°
2026-05-08 23:10 -3.03766 -60.03768 269 ft 10 kts 168°
2026-05-08 23:10 -3.03825 -60.03780 268 ft 8 kts 217°
2026-05-08 23:11 -3.03856 -60.03822 268 ft 7 kts 246°
2026-05-08 23:11 -3.03862 -60.03863 268 ft 5 kts 270°
2026-05-08 23:11 -3.03862 -60.03881 268 ft 12 kts 270°
2026-05-08 23:11 -3.03861 -60.04229 269 ft 85 kts 270°
2026-05-08 23:12 -3.03859 -60.05029 268 ft 143 kts 270°
2026-05-08 23:12 -3.03860 -60.06142 548 ft 163 kts 270°
2026-05-08 23:12 -3.03854 -60.07287 1068 ft 173 kts 271°
2026-05-08 23:12 -3.03852 -60.08553 1376 ft 192 kts 271°
2026-05-08 23:13 -3.03852 -60.09946 1635 ft 214 kts 271°
2026-05-08 23:13 -3.03851 -60.11526 1891 ft 239 kts 270°
2026-05-08 23:13 -3.03955 -60.13262 2283 ft 261 kts 254°
2026-05-08 23:13 -3.04934 -60.14799 2950 ft 270 kts 218°
2026-05-08 23:14 -3.06651 -60.15519 3698 ft 273 kts 183°
2026-05-08 23:14 -3.08538 -60.15315 4504 ft 275 kts 164°
2026-05-08 23:14 -3.10379 -60.14778 5311 ft 277 kts 162°
2026-05-08 23:14 -3.12230 -60.14217 6131 ft 279 kts 161°
2026-05-08 23:15 -3.14095 -60.13650 6882 ft 282 kts 161°
2026-05-08 23:15 -3.15987 -60.13114 7624 ft 285 kts 166°
2026-05-08 23:15 -3.17930 -60.12782 8336 ft 289 kts 171°
2026-05-08 23:15 -3.19933 -60.12503 9059 ft 292 kts 165°
2026-05-08 23:16 -3.21803 -60.11737 9760 ft 292 kts 145°
2026-05-08 23:16 -3.23272 -60.10342 10393 ft 293 kts 123°
2026-05-08 23:16 -3.24143 -60.08493 10892 ft 302 kts 106°
2026-05-08 23:16 -3.24730 -60.06397 11033 ft 324 kts 104°
2026-05-08 23:17 -3.25330 -60.04147 11159 ft 345 kts 104°
2026-05-08 23:17 -3.25953 -60.01787 11570 ft 354 kts 104°
2026-05-08 23:17 -3.26593 -59.99389 12136 ft 359 kts 105°
2026-05-08 23:17 -3.27240 -59.96999 12727 ft 362 kts 105°
2026-05-08 23:18 -3.27907 -59.94556 13306 ft 366 kts 105°
2026-05-08 23:18 -3.28584 -59.92094 13856 ft 369 kts 105°
2026-05-08 23:18 -3.29269 -59.89605 14374 ft 372 kts 105°
2026-05-08 23:18 -3.29957 -59.87104 14894 ft 374 kts 105°
2026-05-08 23:19 -3.30649 -59.84587 15410 ft 377 kts 105°
2026-05-08 23:19 -3.31502 -59.82104 15899 ft 380 kts 114°
2026-05-08 23:19 -3.32841 -59.79817 16405 ft 383 kts 126°
2026-05-08 23:19 -3.34637 -59.77839 16899 ft 387 kts 137°
2026-05-08 23:20 -3.36675 -59.76117 17389 ft 390 kts 139°
2026-05-08 23:20 -3.38752 -59.74365 17876 ft 392 kts 139°
2026-05-08 23:20 -3.40844 -59.72592 18340 ft 395 kts 138°
2026-05-08 23:20 -3.42947 -59.70806 18759 ft 398 kts 138°
2026-05-08 23:21 -3.45064 -59.69011 19185 ft 400 kts 138°
2026-05-08 23:21 -3.47190 -59.67207 19614 ft 402 kts 138°
2026-05-08 23:21 -3.49331 -59.65387 20042 ft 405 kts 138°
2026-05-08 23:21 -3.51481 -59.63556 20448 ft 407 kts 138°
2026-05-08 23:22 -3.53650 -59.61716 20848 ft 410 kts 138°
2026-05-08 23:22 -3.55803 -59.59893 21247 ft 412 kts 138°
2026-05-08 23:22 -3.57998 -59.58037 21649 ft 414 kts 138°
2026-05-08 23:22 -3.60207 -59.56167 22024 ft 417 kts 138°
2026-05-08 23:23 -3.62424 -59.54287 22395 ft 419 kts 138°
2026-05-08 23:23 -3.64654 -59.52393 22761 ft 421 kts 138°
2026-05-08 23:23 -3.66891 -59.50491 23119 ft 423 kts 138°
2026-05-08 23:23 -3.69141 -59.48581 23462 ft 425 kts 138°
2026-05-08 23:24 -3.71404 -59.46662 23744 ft 428 kts 138°
2026-05-08 23:24 -3.73680 -59.44735 24013 ft 430 kts 138°
2026-05-08 23:24 -3.75970 -59.42795 24291 ft 431 kts 138°
2026-05-08 23:24 -3.78232 -59.40874 24557 ft 433 kts 138°
2026-05-08 23:25 -3.80536 -59.38916 24827 ft 435 kts 138°
2026-05-08 23:25 -3.82846 -59.36954 25088 ft 437 kts 138°
2026-05-08 23:25 -3.85171 -59.34980 25345 ft 439 kts 138°
2026-05-08 23:25 -3.87504 -59.32999 25600 ft 441 kts 139°
2026-05-08 23:26 -3.89850 -59.31008 25839 ft 443 kts 139°
2026-05-08 23:26 -3.92203 -59.29012 26083 ft 445 kts 139°
2026-05-08 23:26 -3.94568 -59.27003 26327 ft 447 kts 139°
2026-05-08 23:26 -3.96911 -59.25012 26565 ft 448 kts 139°
2026-05-08 23:27 -3.99291 -59.22988 26801 ft 450 kts 139°
2026-05-08 23:27 -4.01685 -59.20952 27033 ft 452 kts 139°
2026-05-08 23:27 -4.04087 -59.18913 27261 ft 454 kts 139°
2026-05-08 23:27 -4.06500 -59.16867 27483 ft 456 kts 139°
2026-05-08 23:28 -4.08924 -59.14809 27699 ft 458 kts 139°
2026-05-08 23:28 -4.11355 -59.12747 27913 ft 459 kts 139°
2026-05-08 23:28 -4.13798 -59.10672 28125 ft 461 kts 139°
2026-05-08 23:28 -4.16247 -59.08586 28327 ft 463 kts 139°
2026-05-08 23:29 -4.18670 -59.06524 28520 ft 464 kts 139°
2026-05-08 23:29 -4.21138 -59.04425 28711 ft 466 kts 139°
2026-05-08 23:29 -4.23611 -59.02320 28898 ft 467 kts 139°
2026-05-08 23:29 -4.26092 -59.00213 29076 ft 469 kts 139°
2026-05-08 23:30 -4.28590 -58.98094 29244 ft 471 kts 139°
2026-05-08 23:30 -4.31093 -58.95973 29422 ft 472 kts 139°
2026-05-08 23:30 -4.33602 -58.93843 29592 ft 473 kts 139°
2026-05-08 23:30 -4.36112 -58.91710 29844 ft 473 kts 139°
2026-05-08 23:31 -4.38614 -58.89581 30072 ft 472 kts 140°
2026-05-08 23:31 -4.41116 -58.87449 30272 ft 472 kts 140°
2026-05-08 23:31 -4.43616 -58.85314 30473 ft 472 kts 140°
2026-05-08 23:31 -4.46115 -58.83184 30665 ft 472 kts 140°
2026-05-08 23:32 -4.48584 -58.81081 30857 ft 472 kts 140°
2026-05-08 23:32 -4.51090 -58.78952 31058 ft 472 kts 140°
2026-05-08 23:32 -4.53597 -58.76828 31257 ft 472 kts 140°
2026-05-08 23:32 -4.56103 -58.74698 31468 ft 472 kts 140°
2026-05-08 23:33 -4.58575 -58.72534 31678 ft 472 kts 139°
2026-05-08 23:33 -4.61009 -58.70326 31887 ft 472 kts 138°
2026-05-08 23:33 -4.63423 -58.68095 32094 ft 472 kts 138°
2026-05-08 23:33 -4.65833 -58.65854 32309 ft 472 kts 138°
2026-05-08 23:34 -4.68245 -58.63621 32520 ft 472 kts 138°
2026-05-08 23:34 -4.70636 -58.61424 32737 ft 472 kts 139°
2026-05-08 23:34 -4.73063 -58.59211 32952 ft 472 kts 139°
2026-05-08 23:34 -4.75493 -58.56999 33177 ft 472 kts 139°
2026-05-08 23:35 -4.77926 -58.54793 33404 ft 471 kts 139°
2026-05-08 23:35 -4.80354 -58.52590 33630 ft 471 kts 139°
2026-05-08 23:35 -4.82784 -58.50378 33850 ft 471 kts 139°
2026-05-08 23:35 -4.85208 -58.48172 34057 ft 471 kts 139°
2026-05-08 23:36 -4.87632 -58.45963 34249 ft 471 kts 139°
2026-05-08 23:36 -4.90055 -58.43754 34441 ft 471 kts 139°
2026-05-08 23:36 -4.92477 -58.41545 34635 ft 470 kts 139°
2026-05-08 23:36 -4.94894 -58.39339 34821 ft 470 kts 139°
2026-05-08 23:37 -4.97315 -58.37129 35003 ft 470 kts 139°
2026-05-08 23:37 -4.99699 -58.34953 35178 ft 470 kts 139°
2026-05-08 23:37 -5.02113 -58.32748 35355 ft 469 kts 140°
2026-05-08 23:37 -5.04531 -58.30546 35529 ft 469 kts 140°
2026-05-08 23:38 -5.06947 -58.28346 35701 ft 469 kts 140°
2026-05-08 23:38 -5.09358 -58.26149 35869 ft 469 kts 140°
2026-05-08 23:38 -5.11769 -58.23949 36032 ft 468 kts 140°
2026-05-08 23:38 -5.14180 -58.21749 36200 ft 468 kts 140°
2026-05-08 23:39 -5.16586 -58.19551 36363 ft 468 kts 140°
2026-05-08 23:39 -5.18958 -58.17391 36518 ft 467 kts 140°
2026-05-08 23:39 -5.21397 -58.15171 36674 ft 467 kts 140°
2026-05-08 23:39 -5.23766 -58.13016 36839 ft 466 kts 140°
2026-05-08 23:40 -5.28600 -58.08652 36897 ft 467 kts 141°
2026-05-08 23:40 -5.33443 -58.04301 36894 ft 467 kts 140°
2026-05-08 23:41 -5.38282 -57.99949 36893 ft 467 kts 140°
2026-05-08 23:41 -5.43117 -57.95596 36895 ft 467 kts 140°
2026-05-08 23:42 -5.47960 -57.91236 36897 ft 468 kts 140°
2026-05-08 23:42 -5.52771 -57.86907 36900 ft 468 kts 140°
2026-05-08 23:43 -5.57606 -57.82533 36902 ft 468 kts 140°
2026-05-08 23:43 -5.62453 -57.78157 36904 ft 468 kts 140°
2026-05-08 23:44 -5.67299 -57.73788 36901 ft 468 kts 140°
2026-05-08 23:44 -5.71336 -57.70156 36903 ft 469 kts 140°
2026-05-08 23:45 -5.76186 -57.65782 36903 ft 469 kts 140°
2026-05-08 23:45 -5.81826 -57.60693 36899 ft 469 kts 140°
2026-05-08 23:46 -5.85859 -57.57047 36900 ft 469 kts 140°
2026-05-08 23:46 -5.90715 -57.52664 36899 ft 469 kts 140°
2026-05-08 23:47 -5.96361 -57.47570 36902 ft 469 kts 140°
2026-05-08 23:47 -6.00428 -57.43894 36899 ft 470 kts 140°
2026-05-08 23:48 -6.05252 -57.39533 36902 ft 470 kts 140°
2026-05-08 23:48 -6.10112 -57.35135 36905 ft 470 kts 140°
2026-05-08 23:49 -6.14967 -57.30738 36904 ft 470 kts 140°
2026-05-08 23:49 -6.19831 -57.26338 36908 ft 470 kts 140°
2026-05-08 23:50 -6.24693 -57.21939 36910 ft 470 kts 140°
2026-05-08 23:50 -6.29531 -57.17572 36905 ft 470 kts 140°
2026-05-08 23:51 -6.34396 -57.13173 36906 ft 470 kts 140°
2026-05-08 23:51 -6.39261 -57.08771 36910 ft 471 kts 141°
2026-05-08 23:52 -6.44130 -57.04362 36892 ft 472 kts 141°
2026-05-08 23:52 -6.48978 -56.99975 36890 ft 472 kts 141°
2026-05-08 23:53 -6.53862 -56.95544 36890 ft 473 kts 141°
2026-05-08 23:53 -6.58754 -56.91109 36887 ft 474 kts 141°
2026-05-08 23:54 -6.63649 -56.86667 36897 ft 475 kts 141°
2026-05-08 23:55 -6.71012 -56.79985 36896 ft 476 kts 141°
2026-05-08 23:55 -6.75901 -56.75557 36900 ft 476 kts 141°
2026-05-08 23:56 -6.80820 -56.71099 36906 ft 476 kts 141°
2026-05-08 23:56 -6.85730 -56.66632 36908 ft 476 kts 141°
2026-05-08 23:57 -6.90649 -56.62165 36911 ft 476 kts 141°
2026-05-08 23:57 -6.95534 -56.57737 36909 ft 476 kts 141°
2026-05-08 23:58 -7.00447 -56.53274 36910 ft 476 kts 141°
2026-05-08 23:58 -7.05355 -56.48808 36909 ft 476 kts 141°
2026-05-08 23:59 -7.10274 -56.44340 36909 ft 476 kts 141°
2026-05-08 23:59 -7.15188 -56.39870 36908 ft 476 kts 140°
2026-05-09 00:00 -7.20103 -56.35397 36905 ft 476 kts 140°
2026-05-09 00:00 -7.24987 -56.30951 36903 ft 477 kts 140°
2026-05-09 00:01 -7.29906 -56.26474 36908 ft 477 kts 140°
2026-05-09 00:01 -7.34825 -56.21991 36910 ft 477 kts 140°
2026-05-09 00:02 -7.39748 -56.17510 36910 ft 477 kts 140°
2026-05-09 00:02 -7.44641 -56.13059 36910 ft 477 kts 141°
2026-05-09 00:03 -7.49572 -56.08568 36911 ft 478 kts 141°
2026-05-09 00:03 -7.54503 -56.04073 36913 ft 478 kts 141°
2026-05-09 00:04 -7.59434 -55.99566 36913 ft 479 kts 141°
2026-05-09 00:04 -7.64371 -55.95066 36912 ft 479 kts 141°
2026-05-09 00:05 -7.69279 -55.90581 36896 ft 479 kts 141°
2026-05-09 00:05 -7.74216 -55.86064 36919 ft 480 kts 141°
2026-05-09 00:06 -7.79161 -55.81548 36925 ft 480 kts 141°
2026-05-09 00:06 -7.84105 -55.77033 36925 ft 480 kts 141°
2026-05-09 00:07 -7.89018 -55.72547 36926 ft 479 kts 141°
2026-05-09 00:07 -7.93959 -55.68032 36922 ft 479 kts 141°
2026-05-09 00:08 -7.98906 -55.63512 36922 ft 479 kts 141°
2026-05-09 00:08 -8.03836 -55.58991 36923 ft 479 kts 141°
2026-05-09 00:09 -8.08738 -55.54500 36922 ft 479 kts 141°
2026-05-09 00:09 -8.13676 -55.49985 36921 ft 479 kts 141°
2026-05-09 00:10 -8.18612 -55.45466 36923 ft 479 kts 140°
2026-05-09 00:10 -8.23541 -55.40947 36923 ft 479 kts 141°
2026-05-09 00:11 -8.28475 -55.36429 36925 ft 479 kts 140°
2026-05-09 00:11 -8.33371 -55.31940 36924 ft 479 kts 140°
2026-05-09 00:12 -8.38298 -55.27417 36926 ft 479 kts 140°
2026-05-09 00:12 -8.43224 -55.22891 36931 ft 479 kts 140°
2026-05-09 00:13 -8.48158 -55.18370 36924 ft 479 kts 140°
2026-05-09 00:13 -8.53052 -55.13888 36925 ft 478 kts 140°
2026-05-09 00:14 -8.57976 -55.09362 36930 ft 478 kts 140°
2026-05-09 00:14 -8.62895 -55.04832 36935 ft 478 kts 140°
2026-05-09 00:15 -8.67815 -55.00304 36936 ft 478 kts 140°
2026-05-09 00:15 -8.72704 -54.95809 36938 ft 478 kts 140°
2026-05-09 00:16 -8.77627 -54.91287 36941 ft 478 kts 140°
2026-05-09 00:16 -8.82550 -54.86759 36942 ft 478 kts 140°
2026-05-09 00:17 -8.87470 -54.82228 36947 ft 478 kts 140°
2026-05-09 00:17 -8.92391 -54.77701 36945 ft 478 kts 140°
2026-05-09 00:18 -8.97278 -54.73196 36947 ft 478 kts 140°
2026-05-09 00:18 -9.02189 -54.68660 36946 ft 479 kts 140°
2026-05-09 00:19 -9.07114 -54.64123 36949 ft 479 kts 140°
2026-05-09 00:19 -9.12038 -54.59581 36947 ft 479 kts 140°
2026-05-09 00:20 -9.16960 -54.55035 36944 ft 479 kts 140°
2026-05-09 00:20 -9.21753 -54.50408 36940 ft 480 kts 137°
2026-05-09 00:21 -9.26456 -54.45607 36936 ft 480 kts 137°
2026-05-09 00:21 -9.31150 -54.40810 36938 ft 480 kts 137°
2026-05-09 00:22 -9.35892 -54.36053 36933 ft 480 kts 137°
2026-05-09 00:22 -9.40652 -54.31316 36934 ft 480 kts 137°
2026-05-09 00:23 -9.45367 -54.26600 36931 ft 480 kts 137°
2026-05-09 00:23 -9.50107 -54.21840 36935 ft 480 kts 137°
2026-05-09 00:24 -9.54851 -54.17082 36932 ft 480 kts 137°
2026-05-09 00:24 -9.59588 -54.12331 36933 ft 480 kts 137°
2026-05-09 00:25 -9.64296 -54.07602 36929 ft 479 kts 137°
2026-05-09 00:25 -9.69033 -54.02843 36935 ft 479 kts 137°
2026-05-09 00:26 -9.73771 -53.98085 36933 ft 480 kts 137°
2026-05-09 00:26 -9.78503 -53.93321 36932 ft 480 kts 137°
2026-05-09 00:27 -9.83206 -53.88586 36935 ft 479 kts 137°
2026-05-09 00:27 -9.87947 -53.83829 36941 ft 480 kts 138°
2026-05-09 00:28 -9.92804 -53.79193 36935 ft 479 kts 140°
2026-05-09 00:28 -9.97737 -53.74655 36947 ft 479 kts 140°
2026-05-09 00:29 -10.02665 -53.70101 36938 ft 479 kts 140°
2026-05-09 00:29 -10.07555 -53.65509 36947 ft 479 kts 139°
2026-05-09 00:30 -10.12400 -53.60937 36943 ft 479 kts 140°
2026-05-09 00:30 -10.17291 -53.56341 36945 ft 479 kts 140°
2026-05-09 00:31 -10.22180 -53.51747 36942 ft 479 kts 140°
2026-05-09 00:31 -10.27064 -53.47157 36947 ft 478 kts 140°
2026-05-09 00:32 -10.31946 -53.42571 36939 ft 478 kts 139°
2026-05-09 00:32 -10.36785 -53.38007 36936 ft 478 kts 139°
2026-05-09 00:33 -10.41657 -53.33405 36939 ft 478 kts 139°
2026-05-09 00:33 -10.46527 -53.28800 36952 ft 479 kts 139°
2026-05-09 00:34 -10.51401 -53.24190 36942 ft 479 kts 139°
2026-05-09 00:34 -10.56242 -53.19606 36948 ft 479 kts 139°
2026-05-09 00:35 -10.61120 -53.14992 36944 ft 479 kts 139°
2026-05-09 00:35 -10.65991 -53.10376 36948 ft 479 kts 139°
2026-05-09 00:36 -10.70861 -53.05757 36954 ft 479 kts 139°
2026-05-09 00:36 -10.75704 -53.01164 36947 ft 479 kts 139°
2026-05-09 00:37 -10.80579 -52.96541 36943 ft 479 kts 139°
2026-05-09 00:37 -10.85453 -52.91920 36952 ft 479 kts 139°
2026-05-09 00:38 -10.90326 -52.87293 36946 ft 479 kts 139°
2026-05-09 00:38 -10.95170 -52.82691 36955 ft 479 kts 139°
2026-05-09 00:39 -11.00048 -52.78061 36950 ft 479 kts 139°
2026-05-09 00:39 -11.04923 -52.73431 36960 ft 479 kts 139°
2026-05-09 00:40 -11.09791 -52.68796 36959 ft 479 kts 139°
2026-05-09 00:40 -11.14630 -52.64185 36955 ft 480 kts 139°
2026-05-09 00:41 -11.21938 -52.57222 36956 ft 480 kts 139°
2026-05-09 00:41 -11.26810 -52.52581 36960 ft 480 kts 139°
2026-05-09 00:42 -11.31686 -52.47940 36964 ft 480 kts 139°
2026-05-09 00:42 -11.36527 -52.43327 36956 ft 480 kts 139°
2026-05-09 00:43 -11.41396 -52.38671 36961 ft 480 kts 139°
2026-05-09 00:43 -11.46260 -52.34015 36966 ft 480 kts 139°
2026-05-09 00:44 -11.51134 -52.29374 36968 ft 479 kts 139°
2026-05-09 00:44 -11.56021 -52.24820 36969 ft 479 kts 141°
2026-05-09 00:45 -11.61100 -52.20435 36962 ft 478 kts 142°
2026-05-09 00:45 -11.66208 -52.16091 36973 ft 478 kts 142°
2026-05-09 00:46 -11.71280 -52.11698 36970 ft 478 kts 142°
2026-05-09 00:46 -11.76330 -52.07277 36967 ft 478 kts 142°
2026-05-09 00:47 -11.81349 -52.02887 36973 ft 478 kts 142°
2026-05-09 00:47 -11.86401 -51.98478 36966 ft 478 kts 142°
2026-05-09 00:48 -11.91458 -51.94069 36970 ft 478 kts 142°
2026-05-09 00:48 -11.96511 -51.89662 36975 ft 478 kts 142°
2026-05-09 00:49 -12.01560 -51.85247 36973 ft 478 kts 142°
2026-05-09 00:49 -12.06603 -51.80836 36975 ft 477 kts 142°
2026-05-09 00:50 -12.11614 -51.76459 36972 ft 477 kts 142°
2026-05-09 00:50 -12.16655 -51.72047 36977 ft 477 kts 142°
2026-05-09 00:51 -12.21688 -51.67635 36974 ft 477 kts 142°
2026-05-09 00:51 -12.26722 -51.63228 36972 ft 476 kts 142°
2026-05-09 00:52 -12.31759 -51.58823 36972 ft 476 kts 142°
2026-05-09 00:52 -12.36758 -51.54446 36972 ft 476 kts 142°
2026-05-09 00:53 -12.41781 -51.50029 36973 ft 476 kts 142°
2026-05-09 00:53 -12.46806 -51.45612 36971 ft 476 kts 142°
2026-05-09 00:54 -12.51828 -51.41202 36966 ft 476 kts 142°
2026-05-09 00:54 -12.56738 -51.36726 36964 ft 476 kts 140°
2026-05-09 00:55 -12.61558 -51.32061 36968 ft 477 kts 139°
2026-05-09 00:55 -12.66363 -51.27387 36965 ft 476 kts 139°
2026-05-09 00:56 -12.71201 -51.22749 36964 ft 476 kts 139°
2026-05-09 00:56 -12.76016 -51.18157 36963 ft 476 kts 139°
2026-05-09 00:57 -12.80865 -51.13532 36961 ft 476 kts 140°
2026-05-09 00:57 -12.85708 -51.08906 36964 ft 476 kts 139°
2026-05-09 00:58 -12.90546 -51.04273 36965 ft 476 kts 139°
2026-05-09 00:58 -12.95385 -50.99635 36963 ft 476 kts 139°
2026-05-09 00:59 -13.00190 -50.95034 36964 ft 476 kts 139°
2026-05-09 00:59 -13.05027 -50.90400 36965 ft 476 kts 139°
2026-05-09 01:00 -13.09866 -50.85761 36966 ft 476 kts 139°
2026-05-09 01:00 -13.14701 -50.81124 36966 ft 476 kts 139°
2026-05-09 01:01 -13.19495 -50.76513 36960 ft 476 kts 139°
2026-05-09 01:01 -13.24326 -50.71867 36964 ft 476 kts 139°
2026-05-09 01:02 -13.29154 -50.67229 36965 ft 476 kts 139°
2026-05-09 01:02 -13.34052 -50.62664 36966 ft 474 kts 143°
2026-05-09 01:03 -13.39179 -50.58486 36961 ft 473 kts 146°
2026-05-09 01:03 -13.44425 -50.54399 36962 ft 474 kts 145°
2026-05-09 01:04 -13.49623 -50.50235 36964 ft 474 kts 144°
2026-05-09 01:04 -13.54778 -50.46007 36963 ft 474 kts 144°
2026-05-09 01:05 -13.59891 -50.41794 36963 ft 474 kts 144°
2026-05-09 01:06 -13.67623 -50.35456 36966 ft 474 kts 144°
2026-05-09 01:06 -13.72793 -50.31243 36969 ft 474 kts 144°
2026-05-09 01:07 -13.77925 -50.27046 36968 ft 474 kts 144°
2026-05-09 01:07 -13.83086 -50.22823 36967 ft 474 kts 144°
2026-05-09 01:08 -13.88249 -50.18598 36967 ft 474 kts 144°
2026-05-09 01:08 -13.93402 -50.14358 36969 ft 474 kts 144°
2026-05-09 01:09 -13.98562 -50.10126 36966 ft 474 kts 144°
2026-05-09 01:09 -14.03693 -50.05927 36966 ft 474 kts 144°
2026-05-09 01:10 -14.08852 -50.01689 36970 ft 474 kts 144°
2026-05-09 01:10 -14.14007 -49.97447 36970 ft 474 kts 144°
2026-05-09 01:11 -14.19168 -49.93206 36969 ft 474 kts 144°
2026-05-09 01:11 -14.24323 -49.88966 36971 ft 474 kts 144°
2026-05-09 01:12 -14.29478 -49.84723 36974 ft 474 kts 144°
2026-05-09 01:12 -14.34599 -49.80498 36974 ft 474 kts 144°
2026-05-09 01:13 -14.39752 -49.76245 36979 ft 474 kts 144°
2026-05-09 01:13 -14.44911 -49.72003 36983 ft 474 kts 144°
2026-05-09 01:14 -14.50065 -49.67748 36988 ft 475 kts 144°
2026-05-09 01:14 -14.55180 -49.63510 36989 ft 475 kts 144°
2026-05-09 01:15 -14.60333 -49.59250 36992 ft 475 kts 144°
2026-05-09 01:15 -14.65473 -49.54972 36999 ft 476 kts 141°
2026-05-09 01:16 -14.69708 -49.49691 37001 ft 483 kts 122°
2026-05-09 01:16 -14.72394 -49.43310 37000 ft 486 kts 112°
2026-05-09 01:17 -14.75946 -49.33556 36994 ft 486 kts 112°
2026-05-09 01:17 -14.78320 -49.27009 37002 ft 487 kts 112°
2026-05-09 01:18 -14.80693 -49.20461 37005 ft 487 kts 112°
2026-05-09 01:18 -14.83102 -49.13925 37004 ft 486 kts 113°
2026-05-09 01:19 -14.85550 -49.07464 36999 ft 486 kts 113°
2026-05-09 01:19 -14.86791 -49.04201 36251 ft 490 kts 113°
2026-05-09 01:19 -14.88045 -49.00892 35156 ft 498 kts 113°
2026-05-09 01:20 -14.89312 -48.97540 34179 ft 503 kts 112°
2026-05-09 01:20 -14.90580 -48.94160 33137 ft 505 kts 112°
2026-05-09 01:20 -14.91844 -48.90771 32108 ft 506 kts 111°
2026-05-09 01:20 -14.93107 -48.87381 31097 ft 505 kts 111°
2026-05-09 01:21 -14.94372 -48.83991 30178 ft 503 kts 111°
2026-05-09 01:21 -14.95628 -48.80637 29239 ft 498 kts 111°
2026-05-09 01:21 -14.96860 -48.77349 28343 ft 494 kts 111°
2026-05-09 01:21 -14.98096 -48.74059 27587 ft 488 kts 111°
2026-05-09 01:22 -14.99315 -48.70811 26874 ft 481 kts 111°
2026-05-09 01:22 -15.00543 -48.67611 26181 ft 475 kts 115°
2026-05-09 01:22 -15.02177 -48.64679 25531 ft 468 kts 126°
2026-05-09 01:22 -15.04316 -48.62171 24905 ft 462 kts 138°
2026-05-09 01:23 -15.06860 -48.60184 24279 ft 457 kts 149°
2026-05-09 01:23 -15.09652 -48.58686 23886 ft 446 kts 154°
2026-05-09 01:23 -15.12343 -48.57306 23777 ft 429 kts 154°
2026-05-09 01:23 -15.14970 -48.55946 23667 ft 414 kts 153°
2026-05-09 01:24 -15.17499 -48.54631 23550 ft 400 kts 153°
2026-05-09 01:24 -15.19946 -48.53355 23420 ft 387 kts 153°
2026-05-09 01:24 -15.22312 -48.52120 23228 ft 377 kts 153°
2026-05-09 01:24 -15.24633 -48.50910 22864 ft 371 kts 153°
2026-05-09 01:25 -15.26933 -48.49711 22426 ft 368 kts 153°
2026-05-09 01:25 -15.29214 -48.48527 22004 ft 366 kts 153°
2026-05-09 01:25 -15.31480 -48.47352 21586 ft 363 kts 153°
2026-05-09 01:25 -15.33733 -48.46182 21178 ft 361 kts 153°
2026-05-09 01:26 -15.35972 -48.45019 20770 ft 359 kts 152°
2026-05-09 01:26 -15.38198 -48.43863 20366 ft 357 kts 152°
2026-05-09 01:26 -15.40411 -48.42712 19985 ft 355 kts 152°
2026-05-09 01:26 -15.42611 -48.41569 19604 ft 353 kts 152°
2026-05-09 01:27 -15.44802 -48.40429 19234 ft 351 kts 152°
2026-05-09 01:27 -15.46983 -48.39294 18875 ft 350 kts 152°
2026-05-09 01:27 -15.49120 -48.38181 18518 ft 348 kts 152°
2026-05-09 01:27 -15.51272 -48.37060 17973 ft 343 kts 151°
2026-05-09 01:28 -15.53399 -48.35952 17257 ft 341 kts 152°
2026-05-09 01:28 -15.55505 -48.34853 16580 ft 338 kts 152°
2026-05-09 01:28 -15.57594 -48.33764 15926 ft 334 kts 152°
2026-05-09 01:28 -15.59686 -48.32676 14907 ft 342 kts 152°
2026-05-09 01:29 -15.61855 -48.31551 13704 ft 355 kts 152°
2026-05-09 01:29 -15.64097 -48.30394 12289 ft 365 kts 153°
2026-05-09 01:29 -15.66404 -48.29205 10791 ft 375 kts 153°
2026-05-09 01:29 -15.68769 -48.27989 9178 ft 384 kts 153°
2026-05-09 01:30 -15.71142 -48.26769 8107 ft 376 kts 153°
2026-05-09 01:30 -15.73374 -48.25626 7780 ft 347 kts 153°
2026-05-09 01:30 -15.75439 -48.24571 7695 ft 315 kts 153°
2026-05-09 01:30 -15.77319 -48.23611 7695 ft 292 kts 153°
2026-05-09 01:31 -15.79018 -48.22531 7704 ft 278 kts 139°
2026-05-09 01:31 -15.80340 -48.21156 7703 ft 260 kts 131°
2026-05-09 01:31 -15.81530 -48.19820 7708 ft 245 kts 131°
2026-05-09 01:31 -15.82672 -48.18539 7711 ft 240 kts 131°
2026-05-09 01:32 -15.83808 -48.17267 7715 ft 240 kts 131°
2026-05-09 01:32 -15.84945 -48.15998 7613 ft 240 kts 131°
2026-05-09 01:32 -15.86078 -48.14732 7427 ft 239 kts 131°
2026-05-09 01:32 -15.87192 -48.13485 7217 ft 238 kts 131°
2026-05-09 01:33 -15.88289 -48.12206 6865 ft 239 kts 123°
2026-05-09 01:33 -15.88957 -48.10654 6550 ft 235 kts 101°
2026-05-09 01:33 -15.89025 -48.08986 6258 ft 229 kts 85°
2026-05-09 01:33 -15.88921 -48.07384 5977 ft 215 kts 85°
2026-05-09 01:34 -15.88825 -48.05893 5736 ft 197 kts 85°
2026-05-09 01:34 -15.88740 -48.04551 5501 ft 174 kts 86°
2026-05-09 01:34 -15.88665 -48.03361 5281 ft 157 kts 85°
2026-05-09 01:34 -15.88595 -48.02272 5090 ft 147 kts 86°
2026-05-09 01:35 -15.88528 -48.01224 4912 ft 143 kts 86°
2026-05-09 01:35 -15.88463 -48.00194 4726 ft 142 kts 86°
2026-05-09 01:35 -15.88397 -47.99170 4546 ft 142 kts 86°
2026-05-09 01:35 -15.88333 -47.98159 4362 ft 143 kts 86°
2026-05-09 01:36 -15.88266 -47.97120 4175 ft 145 kts 86°
2026-05-09 01:36 -15.88199 -47.96072 3973 ft 146 kts 86°
2026-05-09 01:36 -15.88130 -47.95018 3759 ft 147 kts 86°
2026-05-09 01:36 -15.88062 -47.93962 3540 ft 147 kts 87°
2026-05-09 01:37 -15.88002 -47.92993 3480 ft 119 kts 86°
2026-05-09 01:37 -15.87959 -47.92314 3472 ft 69 kts 86°
2026-05-09 01:37 -15.87940 -47.92008 3461 ft 25 kts 85°
2026-05-09 01:37 -15.87894 -47.91841 3456 ft 13 kts 64°
2026-05-09 01:38 -15.87844 -47.91752 3454 ft 15 kts 54°
2026-05-09 01:38 -15.87781 -47.91660 3454 ft 11 kts 57°
2026-05-09 01:38 -15.87742 -47.91598 3456 ft 9 kts 56°
2026-05-09 01:38 -15.87703 -47.91556 3456 ft 7 kts 30°
2026-05-09 01:39 -15.87654 -47.91552 3457 ft 9 kts 357°
2026-05-09 01:39 -15.87581 -47.91557 3455 ft 12 kts 356°
2026-05-09 01:39 -15.87497 -47.91562 3463 ft 10 kts 356°
2026-05-09 01:39 -15.87440 -47.91566 3470 ft 8 kts 356°
2026-05-09 01:40 -15.87354 -47.91573 3469 ft 15 kts 355°
2026-05-09 01:40 -15.87312 -47.91652 3470 ft 15 kts 266°
2026-05-09 01:40 -15.87318 -47.91748 3470 ft 14 kts 266°
2026-05-09 01:40 -15.87308 -47.91799 3469 ft 5 kts 352°
2026-05-09 01:41 -15.87270 -47.91800 3470 ft 4 kts 356°
2026-05-09 01:41 -15.87261 -47.91801 3469 ft 0 kts 356°